Regional Weather Roundup
Issued by NWS Cleveland, OH

Home | Current Version | Previous Version | Graphics & Text | Print | Product List | Glossary On
Versions: 1 2 3 4 5 6 7 8 9 10 11 12 13 14 15 16 17 18 19 20 21 22 23 24 25 26 27 28 29 30 31 32 33 34 35 36 37 38 39 40 41 42 43 44 45 46 47 48 49 50
000
ASUS41 KCLE 210810
RWRCLE
OHIO REGIONAL WEATHER ROUNDUP
NATIONAL WEATHER SERVICE WILMINGTON, OH
400 AM EDT MON APR 21 2014

NOTE: "FAIR" INDICATES FEW OR NO CLOUDS BELOW 12,000 FEET WITH NO
SIGNIFICANT WEATHER AND/OR OBSTRUCTIONS TO VISIBILITY.

OHZ001>008-015>018-024>027-034-035-043-044-210900-
   NORTHWEST OHIO

CITY           SKY/WX    TMP DP  RH WIND       PRES   REMARKS
DEFIANCE       PTCLDY    48  35  60 NW3       30.06S
FINDLAY        CLEAR     47  39  74 S6        30.05F
TOLEDO EXPRESS CLEAR     45  39  79 CALM      30.05S
TOLEDO METCALF CLEAR     47  38  71 CALM      30.06F
LIMA           CLEAR     52  37  56 S8        30.06F
$$

OHZ009>014-019>023-028>033-038-089-210900-
   NORTHEAST OHIO

CITY           SKY/WX    TMP DP  RH WIND       PRES   REMARKS
CLE-HOPKINS    PTCLDY    53  30  41 S8        30.10S
CLE-LAKEFRONT  CLEAR     57  27  31 SE12      30.05F
CUY CO. ARPT   NOT AVBL
LORAIN-ELYRIA  CLEAR     52  35  52 CALM      30.07F
ASHTABULA      PTCLDY    51  28  41 S6        30.10F
AKRON-CANTON   CLEAR     51  29  42 CALM      30.10F
WOOSTER        CLEAR     42  37  82 CALM      30.09F
MANSFIELD      CLEAR     48  39  71 CALM      30.08F
YOUNGSTOWN     PTCLDY    50  28  42 SE8       30.10F
$$

OHZ042-051>053-060>062-070>072-077>081-210900-
  SOUTHWEST OHIO

CITY           SKY/WX    TMP DP  RH WIND       PRES   REMARKS
CINC-COVINGTON MOCLDY    51  42  71 CALM      30.08S
CINC-LUNKEN    CLEAR     45  43  93 CALM      30.09S
HAMILTON       CLEAR     46  42  86 CALM      30.09S
DAYTON         PTCLDY    53  38  56 S3        30.08F
WRIGHT-PAT AFB CLEAR     47  42  81 CALM      30.08S
DAYTON GENERAL CLEAR     52  42  69 SE3       30.07F
WILMINGTON     CLEAR     49  41  74 CALM      30.08F
$$

OHZ036-037-039>041-045>050-054>059-063>069-073>076-082>088-210900-
  CENTRAL AND SOUTHEAST OHIO

CITY           SKY/WX    TMP DP  RH WIND       PRES   REMARKS
COLUMBUS       CLEAR     50  39  66 CALM      30.08S
OSU AIRPORT    CLEAR     49  41  74 CALM      30.08S
BOLTON FIELD   CLEAR     44  41  89 W3        30.08S FOG
RICKENBACK AFB CLEAR     52  40  62 CALM      30.07F
NEWARK         CLEAR     41  37  86 CALM      30.09S
MARION         CLEAR     48  41  76 CALM      30.07F
LANCASTER      CLEAR     42  38  85 CALM      30.09S
ZANESVILLE     PTCLDY    45  35  68 CALM      30.09S
NEW PHILLY     CLEAR     43  34  70 CALM      30.10F
$$



USA.gov is the U.S. government's official web portal to all federal, state and local government web resources and services.